{"data":{"norad_id":53897,"epoch":"2026-09-20T22:00:03.000096Z","epoch_age_seconds":48431,"freshness":"FRESH","line1":"1 53897U 22119M   26263.91670139  .00093952  00000+0  19752-2 0  9995","line2":"2 53897  53.2159 112.0878 0001238  76.9183 157.8542 15.44570354  5931","mean_motion":15.44570354,"eccentricity":0.0001238,"inclination_deg":53.2159,"raan_deg":112.0878,"arg_perigee_deg":76.9183,"mean_anomaly_deg":157.8542,"bstar":0.0019752,"rev_number":593,"period_min":93.229809588848,"perigee_km":431.7976202153,"apogee_km":433.48396879722,"semimajor_km":6810.7777945063,"source":"CELESTRAK","updated_at":"2026-09-21T09:00:33.030285Z"}}